Retour au catalogue

FENGYUN 1C DEB

ActifSSO
NORAD 31985·DEBRIS·🇨🇳 China

Lancé May 10, 1999 depuis Taiyuan Satellite Launch Center

Loading…

Prochains Passages (prochaines 24 heures)

TLE

VieillissantSource: Space-Track

Époque: Sep 9, 2026, 11:08 UTC

1 31985U 99025CPN 26252.46415277  .00000294  00000-0  13090-3 0  9995
2 31985  98.1909 140.6141 0150947 170.8394 189.5596 14.23324760994613

Suivez FENGYUN 1C DEB en temps réel avec AllMySat

Download on the App Store